[Iaude] MPEC L100: 2024 LO2 [a=2.12,e=0.51,i=11.1,H=25.4]
    mpec at cfa.harvard.edu 
    mpec at cfa.harvard.edu
       
    Mon Jun 10 06:48:58 EDT 2024
    
    
  
M.P.E.C. 2024-L100                                Issued 2024 June 10, 10:47 UT
     The Minor Planet Electronic Circulars contain information on unusual
         minor planets, routine data on comets and natural satellites,
         and occasional editorial announcements.  They are published
    on behalf of Division F of the International Astronomical Union by the
          Minor Planet Center, Smithsonian Astrophysical Observatory,
                          Cambridge, MA 02138, U.S.A.
			  
             Prepared using the Tamkin Foundation Computer Network
                              MPC at CFA.HARVARD.EDU
            URL https://www.minorplanetcenter.net/    ISSN 1523-6714
                                    2024 LO2                                    
Observations:
     K24L02O  C2024 05 29.34457915 54 38.410+29 50 39.65         22.22GVEL100F52
     K24L02O  C2024 05 29.35708315 54 40.007+29 50 38.44         22.74GVEL100F52
     K24L02O  C2024 05 29.36963715 54 41.564+29 50 36.79         22.95GVEL100F52
     K24L02O  C2024 06 01.50525016 03 48.807+29 31 51.18         22.92GVEL100F52
     K24L02O  C2024 06 01.51650416 03 50.774+29 31 43.42         22.27GVEL100F52
     K24L02O* C2024 06 08.48594816 37 06.049+27 01 41.26         22.12wXEL100F52
     K24L02O  C2024 06 08.51207316 37 15.451+27 00 35.78         21.73wXEL100F52
     K24L02O  C2024 06 08.52511916 37 20.209+27 00 02.60         21.82wXEL100F52
     K24L02O  C2024 06 08.59147216 37 45.098+26 57 09.94         21.81GVEL100F52
     K24L02O  C2024 06 08.59229816 37 45.419+26 57 07.81         21.59GVEL100F52
     K24L02O 3C2024 06 09.29677916 42 54.828+26 27 27.49         21.51GVEL100T14
     K24L02O 3C2024 06 09.29775916 42 55.221+26 27 25.00         21.77GVEL100T14
     K24L02O 3C2024 06 09.29873816 42 55.613+26 27 22.52         21.73GVEL100T14
     K24L02O 3C2024 06 09.29972016 42 56.006+26 27 20.06         21.72GVEL100T14
     K24L02O KC2024 06 09.35302 16 43 11.41 +26 24 38.9                VEL100291
     K24L02O KC2024 06 09.35916 16 43 13.85 +26 24 20.9                VEL100291
     K24L02O 1C2024 06 09.96093 16 47 51.50 +25 54 36.2          21.2 VXEL100033
     K24L02O 1C2024 06 09.96334 16 47 52.59 +25 54 28.5          21.1 VXEL100033
     K24L02O 1C2024 06 09.96577 16 47 53.65 +25 54 21.5          20.9 VXEL100033
     K24L02O 1C2024 06 09.96819 16 47 54.68 +25 54 13.6          21.2 VXEL100033
     K24L02O KC2024 06 10.20537216 49 50.03 +25 42 09.4          21.9 GVEL100H21
     K24L02O KC2024 06 10.21404216 49 53.87 +25 41 41.8          21.7 GVEL100H21
     K24L02O KC2024 06 10.21702816 49 55.22 +25 41 32.1          21.4 GVEL100H21
Observer details:
033 Karl Schwarzschild Observatory, Tautenburg.  Observers C. Heogner, F.
    Ludwig, M. Hartmann, B. Stecklum.  Measurer B. Stecklum.  1.34-m f/3
    Schmidt + CCD.
291 LPL/Spacewatch II.  Observer R. A. Mastaler.  1.8-m f/2.7 reflector + CCD.
F52 Pan-STARRS 2, Haleakala.  Observers J. Herman, T. Lowe, P. Minguez, A.
    Schultz, I. Smith.  Measurers K. Chambers, T. de Boer, J. Fairlamb, H.
    Gao, M. Huber, C.-C. Lin, E. Magnier, Y. Ramanjooloo, R. Wainscoat, R.
    Weryk.  1.8-m Ritchey-Chretien + CCD.
H21 Astronomical Research Observatory, Westfield.  Observer R. Holmes.
    Measurers T. Linder, R. Holmes, L. Horn.  1.3-m f/4.0 astrograph + CCD.
T14 Canada-France-Hawaii Telescope, Maunakea.  Observers R. Wainscoat, A.
    Acohido, H. Flewelling.  Measurers R. Weryk, R. Wainscoat.  3.6-m f/4.1
    reflector + CCD.
Orbital elements:
2024 LO2                                                 Earth MOID = 0.0290 AU
Epoch 2024 Mar. 31.0 TT = JDT 2460400.5                 Veres                   
M 331.88777              (2000.0)            P               Q                  
n   0.31923620     Peri.  183.67672     +0.12868667     +0.97283381             
a   2.1202869      Node    93.78640     -0.90486312     +0.19459353             
e   0.5071420      Incl.   11.11994     -0.40578624     -0.12541029             
P   3.09           H   25.42          G   0.15           U   7                  
Residuals in seconds of arc
240529 F52  0.3-  0.1-    240608 F52  0.3+  0.2-    240609 033  0.2-  0.1+
240529 F52  0.1+  0.0     240608 F52  0.4+  0.1-    240609 033  0.2+  0.1-
240529 F52  0.0   0.1-    240609 T14  0.0   0.0     240609 033  0.2+  0.4+
240601 F52  0.0   0.1+    240609 T14  0.0   0.0     240609 033  0.2-  0.0
240601 F52  0.2+  0.2+    240609 T14  0.0   0.0     240610 H21  0.0   0.1-
240608 F52  0.0   0.2+    240609 T14  0.0   0.0     240610 H21  0.0   0.1-
240608 F52  0.1-  0.1-    240609 291  0.6-  0.4+    240610 H21  0.3+  0.2-
240608 F52  0.0   0.2-    240609 291  0.8-  0.1-
Ephemeris:
2024 LO2                 a,e,i = 2.12, 0.51, 11                  q = 1.0450
Date    TT    R. A. (2000) Decl.     Delta      r    Elong.  Phase     V
2024 05 11    15 28 45.7 +27 44 37   0.2296  1.1816   134.2    37.8    24.1
...
2024 05 26    15 47 06.7 +29 52 03   0.1487  1.1120   128.7    45.3    23.2
...
2024 06 03    16 09 13.4 +29 14 56   0.1076  1.0836   127.8    47.7    22.6
...
2024 06 09    16 40 41.2 +26 40 33   0.07821 1.0670   129.9    46.9    21.8
2024 06 10    16 48 10.1 +25 53 28   0.07352 1.0647   130.7    46.3    21.6
2024 06 11    16 56 33.2 +24 56 51   0.06893 1.0625   131.7    45.5    21.5
...
2024 06 17    18 14 31.1 +13 27 38   0.04500 1.0519   142.3    36.2    20.3
...
2024 06 25    21 29 03.8 -22 14 00   0.03977 1.0452   135.6    42.8    20.2
...
2024 07 10    00 41 42.1 -38 59 39   0.1009  1.0562   110.5    64.4    22.8
M. P. C. Staff               (C) Copyright 2024 MPC           M.P.E.C. 2024-L100
    
    
More information about the Iaude
mailing list